Meteo orario Gogolevskiy

Oggi, 12 Aprile, Lunedi

Tempo Temperatura Precipitazioni Vento Pressione Umidità
00:00 +10°C° 0 mm 4 m/s 758 mm Hg 88%
01:00 +10°C° 0 mm 4 m/s 758 mm Hg 87%
02:00 +10°C° 0 mm 4 m/s 758 mm Hg 86%
03:00 +10°C° 0 mm 4 m/s 758 mm Hg 85%
04:00 +8°C° 0 mm 4 m/s 758 mm Hg 82%
05:00 +8°C° 0 mm 4 m/s 758 mm Hg 79%
06:00 +8°C° 0 mm 4 m/s 758 mm Hg 75%
07:00 +10°C° 0 mm 5 m/s 758 mm Hg 67%
08:00 +13°C° 0 mm 5 m/s 758 mm Hg 58%
09:00 +16°C° 0 mm 6 m/s 759 mm Hg 49%
10:00 +17°C° 0 mm 7 m/s 759 mm Hg 44%
11:00 +20°C° 0 mm 7 m/s 759 mm Hg 40%
12:00 +21°C° 0 mm 8 m/s 759 mm Hg 35%
13:00 +22°C° 0 mm 8 m/s 759 mm Hg 36%
14:00 +22°C° 0 mm 8 m/s 759 mm Hg 37%
15:00 +23°C° 0 mm 8 m/s 759 mm Hg 38%
16:00 +22°C° 0 mm 7 m/s 759 mm Hg 41%
17:00 +21°C° 0 mm 6 m/s 759 mm Hg 45%
18:00 +20°C° 0 mm 5 m/s 759 mm Hg 48%
19:00 +17°C° 0 mm 5 m/s 759 mm Hg 51%
20:00 +16°C° 0 mm 5 m/s 760 mm Hg 53%
21:00 +15°C° 0 mm 5 m/s 760 mm Hg 55%
22:00 +14°C° 0 mm 4 m/s 760 mm Hg 59%
23:00 +13°C° 0 mm 4 m/s 760 mm Hg 63%

Domani, 13 Aprile, Martedi

Tempo Temperatura Precipitazioni Vento Pressione Umidità
00:00 +12°C° 0 mm 3 m/s 760 mm Hg 66%
01:00 +12°C° 0 mm 4 m/s 760 mm Hg 66%
02:00 +12°C° 0 mm 4 m/s 760 mm Hg 65%
03:00 +11°C° 0 mm 4 m/s 760 mm Hg 65%
04:00 +11°C° 0 mm 4 m/s 760 mm Hg 65%
05:00 +10°C° 0 mm 5 m/s 760 mm Hg 64%
06:00 +9°C° 0 mm 5 m/s 760 mm Hg 64%
07:00 +12°C° 0 mm 5 m/s 761 mm Hg 59%
08:00 +13°C° 0 mm 6 m/s 761 mm Hg 53%
09:00 +14°C° 0 mm 6 m/s 761 mm Hg 48%
10:00 +16°C° 0 mm 7 m/s 761 mm Hg 46%
11:00 +18°C° 0 mm 7 m/s 761 mm Hg 44%
12:00 +20°C° 0 mm 7 m/s 760 mm Hg 42%
13:00 +21°C° 0 mm 7 m/s 760 mm Hg 39%
14:00 +21°C° 0 mm 7 m/s 760 mm Hg 36%
15:00 +22°C° 0 mm 8 m/s 760 mm Hg 33%
16:00 +21°C° 0 mm 7 m/s 760 mm Hg 35%
17:00 +20°C° 0 mm 6 m/s 759 mm Hg 37%
18:00 +19°C° 0 mm 5 m/s 759 mm Hg 40%
19:00 +17°C° 0 mm 5 m/s 759 mm Hg 42%
20:00 +16°C° 0 mm 5 m/s 759 mm Hg 44%
21:00 +14°C° 0 mm 5 m/s 759 mm Hg 46%
22:00 +14°C° 0 mm 4 m/s 759 mm Hg 47%
23:00 +13°C° 0 mm 4 m/s 759 mm Hg 48%

Dopodomani, 14 Aprile, Mercoledi

Tempo Temperatura Precipitazioni Vento Pressione Umidità
00:00 +12°C° 0 mm 4 m/s 759 mm Hg 49%
01:00 +12°C° 0 mm 4 m/s 758 mm Hg 51%
02:00 +11°C° 0 mm 4 m/s 758 mm Hg 53%
03:00 +10°C° 0 mm 3 m/s 758 mm Hg 55%
04:00 +10°C° 0 mm 3 m/s 758 mm Hg 56%
05:00 +10°C° 0 mm 3 m/s 758 mm Hg 57%
06:00 +9°C° 0 mm 3 m/s 758 mm Hg 59%
07:00 +11°C° 0 mm 4 m/s 758 mm Hg 53%
08:00 +13°C° 0 mm 4 m/s 758 mm Hg 48%
09:00 +14°C° 0 mm 5 m/s 758 mm Hg 43%
10:00 +16°C° 0 mm 5 m/s 757 mm Hg 39%
11:00 +19°C° 0 mm 5 m/s 757 mm Hg 35%
12:00 +21°C° 0 mm 6 m/s 757 mm Hg 31%
13:00 +21°C° 0 mm 6 m/s 756 mm Hg 30%
14:00 +22°C° 0 mm 6 m/s 756 mm Hg 29%
15:00 +22°C° 0 mm 6 m/s 756 mm Hg 27%
16:00 +21°C° 0 mm 5 m/s 755 mm Hg 33%
17:00 +20°C° 0 mm 4 m/s 755 mm Hg 38%
18:00 +19°C° 0 mm 3 m/s 755 mm Hg 43%
19:00 +18°C° 0 mm 3 m/s 755 mm Hg 46%
20:00 +16°C° 0 mm 3 m/s 755 mm Hg 50%
21:00 +14°C° 0 mm 3 m/s 755 mm Hg 53%
22:00 +14°C° 0 mm 3 m/s 755 mm Hg 54%
23:00 +13°C° 0 mm 3 m/s 754 mm Hg 54%

15 Aprile, Giovedi

Tempo Temperatura Precipitazioni Vento Pressione Umidità
00:00 +12°C° 0 mm 3 m/s 754 mm Hg 55%
01:00 +12°C° 0 mm 3 m/s 754 mm Hg 56%
02:00 +11°C° 0 mm 3 m/s 754 mm Hg 57%
03:00 +11°C° 0 mm 3 m/s 754 mm Hg 59%
04:00 +11°C° 0 mm 3 m/s 754 mm Hg 61%
05:00 +10°C° 0 mm 3 m/s 754 mm Hg 63%
06:00 +10°C° 0 mm 2 m/s 754 mm Hg 66%
07:00 +12°C° 0 mm 3 m/s 754 mm Hg 60%
08:00 +14°C° 0 mm 3 m/s 754 mm Hg 55%
09:00 +17°C° 0 mm 3 m/s 754 mm Hg 50%
10:00 +18°C° 0 mm 4 m/s 754 mm Hg 45%
11:00 +20°C° 0 mm 4 m/s 754 mm Hg 40%
12:00 +21°C° 0 mm 4 m/s 754 mm Hg 35%
13:00 +21°C° 0 mm 4 m/s 754 mm Hg 34%
14:00 +21°C° 0 mm 4 m/s 753 mm Hg 33%
15:00 +21°C° 0 mm 3 m/s 753 mm Hg 32%
16:00 +21°C° 0 mm 3 m/s 753 mm Hg 36%
17:00 +20°C° 0 mm 2 m/s 753 mm Hg 41%
18:00 +19°C° 0 mm 2 m/s 753 mm Hg 45%
19:00 +18°C° 0 mm 2 m/s 753 mm Hg 50%
20:00 +17°C° 0 mm 3 m/s 753 mm Hg 55%
21:00 +14°C° 0 mm 3 m/s 753 mm Hg 59%
22:00 +14°C° 0 mm 3 m/s 753 mm Hg 62%
23:00 +14°C° 0 mm 2 m/s 753 mm Hg 65%

16 Aprile, Venerdi

Tempo Temperatura Precipitazioni Vento Pressione Umidità
00:00 +14°C° 0 mm 2 m/s 753 mm Hg 67%
01:00 +13°C° 0 mm 2 m/s 753 mm Hg 70%
02:00 +13°C° 0 mm 2 m/s 753 mm Hg 74%
03:00 +11°C° 0 mm 3 m/s 753 mm Hg 77%
04:00 +11°C° 0 mm 3 m/s 753 mm Hg 80%
05:00 +11°C° 0 mm 3 m/s 754 mm Hg 82%
06:00 +10°C° 0 mm 2 m/s 754 mm Hg 84%
07:00 +12°C° 0 mm 3 m/s 754 mm Hg 76%
08:00 +13°C° 0 mm 3 m/s 754 mm Hg 68%
09:00 +15°C° 0 mm 4 m/s 754 mm Hg 60%
10:00 +15°C° 0 mm 4 m/s 754 mm Hg 58%
11:00 +16°C° 0 mm 5 m/s 754 mm Hg 55%
12:00 +17°C° 0 mm 5 m/s 754 mm Hg 52%
13:00 +17°C° 0 mm 5 m/s 755 mm Hg 50%
14:00 +17°C° 0 mm 5 m/s 755 mm Hg 48%
15:00 +17°C° 0 mm 5 m/s 755 mm Hg 46%
16:00 +16°C° 0 mm 5 m/s 755 mm Hg 47%
17:00 +16°C° 0 mm 5 m/s 755 mm Hg 49%
18:00 +15°C° 0 mm 4 m/s 754 mm Hg 50%
19:00 +14°C° 0 mm 4 m/s 755 mm Hg 55%
20:00 +13°C° 0 mm 4 m/s 755 mm Hg 60%
21:00 +11°C° 0 mm 3 m/s 755 mm Hg 64%
22:00 +11°C° 0 mm 3 m/s 755 mm Hg 66%
23:00 +10°C° 0 mm 3 m/s 756 mm Hg 68%

17 Aprile, Sabato

Tempo Temperatura Precipitazioni Vento Pressione Umidità
00:00 +10°C° 0 mm 3 m/s 756 mm Hg 70%
01:00 +10°C° 0.3 mm 2 m/s 756 mm Hg 73%
02:00 +9°C° 0.3 mm 2 m/s 756 mm Hg 76%
03:00 +9°C° 0.3 mm 2 m/s 756 mm Hg 80%
04:00 +9°C° 0.3 mm 2 m/s 756 mm Hg 82%
05:00 +8°C° 0.3 mm 2 m/s 756 mm Hg 84%
06:00 +8°C° 0.3 mm 2 m/s 757 mm Hg 87%
07:00 +9°C° 0 mm 2 m/s 757 mm Hg 79%
08:00 +10°C° 0 mm 3 m/s 757 mm Hg 71%
09:00 +12°C° 0 mm 3 m/s 757 mm Hg 64%
10:00 +13°C° 0 mm 3 m/s 757 mm Hg 57%
11:00 +14°C° 0 mm 4 m/s 757 mm Hg 50%
12:00 +15°C° 0 mm 4 m/s 757 mm Hg 44%
13:00 +15°C° 0 mm 4 m/s 757 mm Hg 41%
14:00 +15°C° 0 mm 4 m/s 757 mm Hg 39%
15:00 +17°C° 0 mm 4 m/s 757 mm Hg 36%
16:00 +15°C° 0 mm 4 m/s 757 mm Hg 38%
17:00 +15°C° 0 mm 4 m/s 758 mm Hg 39%
18:00 +14°C° 0 mm 3 m/s 758 mm Hg 41%
19:00 +13°C° 0 mm 3 m/s 758 mm Hg 50%
20:00 +12°C° 0 mm 3 m/s 759 mm Hg 59%
21:00 +10°C° 0 mm 3 m/s 759 mm Hg 69%
22:00 +10°C° 0 mm 3 m/s 759 mm Hg 75%
23:00 +10°C° 0 mm 3 m/s 759 mm Hg 80%
Mostrare altro

Abbiamo bisogno del tuo consenso

Meteoprog e i nostri fornitori di servizi possono memorizzare e accedere a dati personali come cookie, identificatori di dispositivi o altre tecnologie simili sul tuo dispositivo e possono elaborare tali dati per personalizzare i contenuti e gli annunci, nonché fornire funzionalità dei social media e analizzarne il traffico.

  • Archiviare e/o accedere alle informazioni sul tuo dispositivo

    Cookie, identificatori di dispositivi o altre informazioni possono essere memorizzati o resi accessibili sul tuo dispositivo per le finalità sopra indicate.

  • Annunci e contenuti personalizzati, misurazione di annunci e contenuti, approfondimenti sul pubblico e sviluppo di prodotti

    Gli annunci e i contenuti possono essere personalizzati in base a un profilo. È possibile aggiungere più dati per personalizzare meglio annunci e contenuti. È possibile misurare il rendimento degli annunci e dei contenuti. È possibile ricavare informazioni sul pubblico che ha visto gli annunci e i contenuti. Tali dati possono essere utilizzati per sviluppare o migliorare l'esperienza, i sistemi e il software dell'utente.

Cliccando su “Accetto”, acconsenti all'uso di cookie, identificatori di dispositivo, web beacon o altre tecnologie simili. Puoi modificare le impostazioni nel browser del tuo dispositivo.

Per determinati scopi, è possibile fare affidamento su interessi legali, piuttosto che sul consenso. Puoi approfondire questo argomento consultando la nostra Informativa sulla privacy e sui cookie.